TimeMST,TemperatureF,Dew PointF,Humidity,Sea Level PressureIn,VisibilityMPH,Wind Direction,Wind SpeedMPH,Gust SpeedMPH,PrecipitationIn,Events,Conditions,WindDirDegrees,DateUTC
12:48 AM,37.0,26.1,65,29.96,-9999.0,West,17.3,25.3,N/A,,Unknown,270,2013-01-16 07:48:00
1:48 AM,37.0,25.0,62,29.96,-9999.0,West,19.6,-,N/A,,Unknown,270,2013-01-16 08:48:00
2:48 AM,37.0,25.0,62,29.96,-9999.0,West,17.3,26.5,N/A,,Unknown,270,2013-01-16 09:48:00
3:48 AM,37.0,25.0,62,29.97,-9999.0,West,17.3,-,N/A,,Unknown,280,2013-01-16 10:48:00
4:48 AM,37.9,24.1,57,29.98,-9999.0,West,18.4,25.3,N/A,,Unknown,280,2013-01-16 11:48:00
5:48 AM,37.0,24.1,59,29.99,-9999.0,West,12.7,-,N/A,,Unknown,280,2013-01-16 12:48:00
6:48 AM,37.0,24.1,59,30.01,-9999.0,West,12.7,-,N/A,,Unknown,280,2013-01-16 13:48:00
7:48 AM,35.1,24.1,64,30.06,-9999.0,WNW,11.5,-,N/A,,Unknown,290,2013-01-16 14:48:00
8:48 AM,36.0,25.0,64,30.09,-9999.0,WNW,10.4,-,N/A,,Unknown,300,2013-01-16 15:48:00
9:48 AM,37.9,25.0,60,30.12,-9999.0,WNW,12.7,-,N/A,,Unknown,290,2013-01-16 16:48:00
10:48 AM,39.0,27.0,62,30.14,-9999.0,West,11.5,-,N/A,,Unknown,270,2013-01-16 17:48:00
11:48 AM,41.0,27.0,57,30.14,-9999.0,West,13.8,-,N/A,,Unknown,280,2013-01-16 18:48:00
12:48 PM,41.0,27.0,57,30.14,-9999.0,West,12.7,-,N/A,,Unknown,280,2013-01-16 19:48:00
1:48 PM,39.9,28.0,63,30.14,-9999.0,West,11.5,-,N/A,,Unknown,280,2013-01-16 20:48:00
2:48 PM,41.0,28.9,62,30.17,-9999.0,West,10.4,-,N/A,,Unknown,270,2013-01-16 21:48:00
3:48 PM,39.9,30.0,68,30.19,-9999.0,West,9.2,-,N/A,,Unknown,260,2013-01-16 22:48:00
4:48 PM,37.9,28.9,70,30.21,-9999.0,West,6.9,-,N/A,,Unknown,270,2013-01-16 23:48:00
5:48 PM,37.0,28.9,73,30.23,-9999.0,NW,10.4,-,N/A,,Unknown,310,2013-01-17 00:48:00
6:48 PM,35.1,28.9,78,30.26,-9999.0,West,5.8,-,N/A,,Unknown,270,2013-01-17 01:48:00
7:48 PM,35.1,28.9,78,30.27,-9999.0,WNW,6.9,-,N/A,,Unknown,290,2013-01-17 02:48:00
8:48 PM,34.0,28.0,79,30.28,-9999.0,WNW,8.1,-,N/A,,Unknown,290,2013-01-17 03:48:00
9:48 PM,34.0,28.0,79,30.29,-9999.0,West,9.2,-,N/A,,Unknown,260,2013-01-17 04:48:00
10:48 PM,34.0,27.0,75,30.30,-9999.0,West,6.9,-,N/A,,Unknown,270,2013-01-17 05:48:00
11:48 PM,34.0,28.0,79,30.31,-9999.0,WNW,6.9,-,N/A,,Unknown,290,2013-01-17 06:48:00